Flag for Australia Weather past 2 weeks in Samford, Queensland, Australia

Now
70 °F

Scattered showers. Scattered clouds.


Feels Like: 70 °F
Forecast: 68 / 79 °F
Wind: 7 mph from Southwest

Location: Brisbane Airport M. O

Current Time: Apr 2, 2015 at 8:18:34 AM

Latest Report: Apr 2, 2015 at 7:30 AM


Visibility: N/A

Pressure: 30.07 "Hg

Humidity: 94%

Dew point: 68 °F

Location of SamfordLocation

Historic Weather in Samford — Graph

°F

Samford temperature yesterday

Maximum temperature yesterday: 77 °F (at 1:00 PM)
Minimum temperature yesterday: 66 °F (at 3:00 AM)
Average temperature yesterday: 71 °F

Past Weeks' High & Low Weather Summary

 TemperatureHumidityPressure
High86 °F (Mar 19, 12:00 PM)100% (Mar 21, 4:00 PM)30.24 "Hg (Mar 21, 4:00 PM)
Low66 °F (Apr 1, 3:00 AM)51% (Mar 28, 3:00 PM)29.80 "Hg (Mar 19, 2:00 PM)
Average76 °F79%30.03 "Hg
* Reported Mar 18 7:00 AM — Apr 2 7:00 AM, Samford, Weather by CustomWeather, © 2015

Note: Actual official high and low records may vary slightly from our data, if they occured in-between our weather recording intervals... More about our weather records

Advertising

Samford weather history for previous 24 hours

 ConditionsComfort  
Time TempWeatherWind HumidityBarometerVisibility
7:00 AM
Thu, Apr 2
68 °FScattered showers. Partly sunny.7 mph94%30.07 "HgN/A
6:00 AM66 °FScattered showers. Scattered clouds.8 mph100%30.04 "HgN/A
5:30 AM68 °FSprinkles. Scattered clouds.9 mph94%30.04 "HgN/A
5:00 AM66 °FScattered showers. Scattered clouds.8 mph100%30.04 "HgN/A
4:00 AM66 °FScattered showers. Passing clouds.8 mph94%30.04 "HgN/A
3:30 AM68 °FScattered showers. Passing clouds.9 mph94%30.04 "HgN/A
3:00 AM68 °FScattered showers. Partly cloudy.10 mph94%30.04 "HgN/A
2:00 AM68 °FSprinkles. Partly cloudy.9 mph94%30.07 "Hg4 mi
1:30 AM68 °FSprinkles. Partly cloudy.9 mph100%30.09 "HgN/A
1:00 AM68 °FSprinkles. Partly cloudy.6 mph100%30.09 "Hg4 mi
12:30 AM68 °FSprinkles. Partly cloudy.10 mph100%30.09 "Hg4 mi
12:00 AM70 °FSprinkles. Partly cloudy.5 mph94%30.09 "Hg6 mi
11:00 PM
Wed, Apr 1
70 °FSprinkles. Partly cloudy.6 mph94%30.12 "Hg4 mi
10:00 PM70 °FSprinkles. Partly cloudy.15 mph94%30.12 "Hg6 mi
9:00 PM73 °FRain showers. Partly cloudy.14 mph83%30.09 "Hg4 mi
8:30 PM73 °FRain showers. Partly cloudy.8 mph74%30.09 "HgN/A
8:00 PM73 °FSprinkles. Partly cloudy.10 mph83%30.09 "Hg5 mi
7:30 PM73 °FRain showers. Partly cloudy.9 mph78%30.09 "HgN/A
7:00 PM73 °FScattered showers. Partly cloudy.9 mph78%30.09 "HgN/A
6:30 PM73 °FSprinkles. Partly cloudy.8 mph78%30.07 "HgN/A
6:00 PM72 °FSprinkles. Partly cloudy.8 mph88%30.07 "HgN/A
5:30 PM73 °FSprinkles. Partly cloudy.10 mph78%30.07 "HgN/A
5:00 PM75 °FScattered showers. Partly cloudy.10 mph69%30.07 "HgN/A
4:30 PM75 °FPartly sunny.10 mph74%30.07 "HgN/A
4:00 PM75 °FPartly sunny.10 mph74%30.07 "HgN/A
3:00 PM75 °FScattered showers. Broken clouds.9 mph69%30.07 "HgN/A
2:30 PM75 °FScattered showers. Broken clouds.9 mph69%30.07 "HgN/A
2:00 PM77 °FBroken clouds.9 mph65%30.09 "HgN/A
1:00 PM77 °FBroken clouds.10 mph65%30.09 "HgN/A
12:30 PM73 °FScattered showers. Broken clouds.6 mph78%30.12 "HgN/A
12:00 PM72 °FScattered showers. Partly sunny.7 mph83%30.12 "HgN/A
11:30 AM70 °FScattered showers. Broken clouds.7 mph88%30.15 "HgN/A
11:00 AM70 °FScattered showers. Partly sunny.7 mph88%30.15 "HgN/A
10:30 AM68 °FScattered showers. Broken clouds.6 mph88%30.18 "HgN/A
10:00 AM68 °FLight rain. Partly sunny.10 mph94%30.18 "HgN/A
9:30 AM68 °FLight rain. Broken clouds.10 mph94%30.18 "HgN/A
9:00 AM68 °FLight rain. Partly sunny.9 mph94%30.21 "HgN/A
8:30 AM68 °FScattered showers. Broken clouds.9 mph94%30.18 "HgN/A
8:00 AM68 °FLight rain. Broken clouds.8 mph94%30.18 "HgN/A
Weather by CustomWeather, © 2015

See weather overviewHow to use our weather pages